| time (UTC) | temp C | wind direction | speed KPH | gust KPH | rain 1hr cm | rain 24hr cm | rain mn cm | humidity % | barometer mb |
| 20260906234536 | 11 | 136 | 4.8 | 9.7 | 0.00 | 0.23 | 0.13 | 99 | 989.8 |
| 20260906233031 | 11 | 155 | 6.4 | 12.9 | 0.00 | 0.23 | 0.13 | 99 | 989.9 |
| 20260906231529 | 11 | 122 | 3.2 | 12.9 | 0.00 | 0.23 | 0.13 | 99 | 990.0 |
| 20260906230034 | 11 | 134 | 3.2 | 8.0 | 0.00 | 0.23 | 0.13 | 99 | 990.1 |
| 20260906224524 | 11 | 120 | 4.8 | 9.7 | 0.00 | 0.25 | 0.13 | 99 | 990.3 |
| 20260906223024 | 11 | 149 | 4.8 | 12.9 | 0.00 | 0.25 | 0.13 | 99 | 990.3 |
| 20260906221521 | 11 | 132 | 8.0 | 12.9 | 0.00 | 0.25 | 0.13 | 99 | 990.3 |
| 20260906220021 | 11 | 113 | 4.8 | 9.7 | 0.00 | 0.25 | 0.13 | 99 | 990.4 |
| 20260906214518 | 11 | 132 | 6.4 | 9.7 | 0.00 | 0.28 | 0.13 | 99 | 990.5 |
| 20260906213016 | 10 | 128 | 4.8 | 9.7 | 0.03 | 0.28 | 0.13 | 99 | 990.5 |
| 20260906211515 | 10 | 132 | 6.4 | 9.7 | 0.03 | 0.28 | 0.13 | 99 | 990.6 |
| 20260906210015 | 10 | 145 | 3.2 | 11.3 | 0.05 | 0.28 | 0.13 | 99 | 990.7 |
| 20260906204512 | 10 | 138 | 4.8 | 9.7 | 0.05 | 0.33 | 0.13 | 99 | 990.8 |
| 20260906203025 | 10 | 136 | 6.4 | 9.7 | 0.03 | 0.33 | 0.10 | 99 | 990.9 |
| 20260906201514 | 10 | 142 | 3.2 | 9.7 | 0.03 | 0.33 | 0.10 | 99 | 991.0 |
| 20260906200006 | 10 | 156 | 6.4 | 14.5 | 0.00 | 0.30 | 0.08 | 99 | 991.2 |
| 20260906194506 | 10 | 127 | 6.4 | 11.3 | 0.00 | 0.33 | 0.08 | 99 | 991.2 |
| 20260906193006 | 10 | 109 | 9.7 | 16.1 | 0.00 | 0.33 | 0.08 | 99 | 991.2 |
| 20260906191503 | 10 | 101 | 9.7 | 16.1 | 0.03 | 0.33 | 0.08 | 99 | 991.3 |
| 20260906190002 | 10 | 91 | 8.0 | 12.9 | 0.03 | 0.33 | 0.08 | 99 | 991.5 |
| 20260906184610 | 10 | 72 | 6.4 | 16.1 | 0.03 | 0.33 | 0.08 | 99 | 991.6 |
| 20260906183110 | 9 | 79 | 8.0 | 14.5 | 0.03 | 0.33 | 0.08 | 99 | 991.6 |
| 20260906181601 | 9 | 115 | 4.8 | 9.7 | 0.00 | 0.33 | 0.05 | 99 | 991.7 |
| 20260906180117 | 9 | 94 | 9.7 | 14.5 | 0.00 | 0.33 | 0.05 | 98 | 991.8 |
| 20260906174613 | 9 | 77 | 6.4 | 11.3 | 0.00 | 0.33 | 0.05 | 98 | 992.0 |
| 20260906173050 | 8 | 82 | 4.8 | 9.7 | 0.03 | 0.33 | 0.05 | 98 | 992.1 |
| 20260906171606 | 8 | 64 | 4.8 | 8.0 | 0.03 | 0.33 | 0.05 | 98 | 992.1 |
| 20260906170057 | 8 | 84 | 0.0 | 0.0 | 0.03 | 0.33 | 0.05 | 98 | 992.3 |
| 20260906164542 | 8 | 134 | 1.6 | 4.8 | 0.03 | 0.33 | 0.05 | 98 | 992.8 |
| 20260906163042 | 8 | 133 | 0.0 | 0.0 | 0.00 | 0.30 | 0.05 | 98 | 992.8 |
| 20260906161557 | 8 | 77 | 0.0 | 0.0 | 0.00 | 0.30 | 0.05 | 98 | 992.9 |
| 20260906160040 | 8 | 115 | 0.0 | 0.0 | 0.00 | 0.30 | 0.05 | 98 | 993.0 |
| 20260906154545 | 8 | 70 | 0.0 | 0.0 | 0.00 | 0.30 | 0.05 | 98 | 992.8 |
| 20260906153049 | 8 | 356 | 0.0 | 0.0 | 0.00 | 0.30 | 0.05 | 98 | 992.7 |
| 20260906151538 | 7 | 132 | 0.0 | 0.0 | 0.00 | 0.30 | 0.05 | 99 | 992.9 |
| 20260906150039 | 7 | 233 | 0.0 | 0.0 | 0.00 | 0.30 | 0.05 | 99 | 992.9 |
| 20260906144537 | 7 | 233 | 0.0 | 0.0 | 0.00 | 0.30 | 0.05 | 99 | 992.8 |
| 20260906143034 | 7 | 233 | 0.0 | 0.0 | 0.00 | 0.30 | 0.05 | 98 | 992.8 |
| 20260906141534 | 7 | 208 | 0.0 | 0.0 | 0.00 | 0.30 | 0.05 | 98 | 992.8 |
| 20260906140035 | 7 | 236 | 0.0 | 0.0 | 0.03 | 0.30 | 0.05 | 99 | 992.8 |
| 20260906134532 | 7 | 223 | 0.0 | 0.0 | 0.03 | 0.30 | 0.05 | 99 | 993.1 |
| 20260906133035 | 7 | 203 | 0.0 | 4.8 | 0.03 | 0.30 | 0.05 | 99 | 993.1 |
| 20260906131530 | 7 | 205 | 3.2 | 6.4 | 0.03 | 0.30 | 0.05 | 99 | 993.2 |
| 20260906130032 | 7 | 153 | 0.0 | 0.0 | 0.00 | 0.28 | 0.03 | 99 | 993.3 |
| 20260906124527 | 7 | 141 | 0.0 | 0.0 | 0.00 | 0.28 | 0.03 | 99 | 993.3 |
| 20260906123029 | 7 | 219 | 0.0 | 0.0 | 0.00 | 0.28 | 0.03 | 98 | 993.5 |
| 20260906121533 | 7 | 225 | 0.0 | 0.0 | 0.00 | 0.28 | 0.03 | 98 | 993.6 |
| 20260906120022 | 7 | 225 | 0.0 | 0.0 | 0.00 | 0.28 | 0.03 | 98 | 993.8 |
| 20260906114528 | 7 | 246 | 0.0 | 0.0 | 0.00 | 0.28 | 0.03 | 98 | 994.4 |
| 20260906113020 | 7 | 240 | 0.0 | 0.0 | 0.00 | 0.28 | 0.03 | 98 | 994.3 |
| 20260906111521 | 7 | 242 | 0.0 | 3.2 | 0.00 | 0.28 | 0.03 | 98 | 994.4 |
| 20260906110017 | 7 | 246 | 0.0 | 0.0 | 0.00 | 0.28 | 0.03 | 98 | 994.5 |
| 20260906104516 | 7 | 213 | 0.0 | 0.0 | 0.00 | 0.28 | 0.03 | 98 | 994.8 |
| 20260906103017 | 7 | 205 | 0.0 | 0.0 | 0.00 | 0.28 | 0.03 | 98 | 994.6 |
| 20260906101515 | 7 | 70 | 0.0 | 0.0 | 0.03 | 0.28 | 0.03 | 98 | 994.2 |
| 20260906100026 | 7 | 259 | 0.0 | 0.0 | 0.03 | 0.28 | 0.03 | 98 | 994.3 |
| 20260906094512 | 7 | 325 | 0.0 | 0.0 | 0.03 | 0.28 | 0.03 | 98 | 994.4 |
| 20260906093015 | 7 | 222 | 0.0 | 0.0 | 0.03 | 0.28 | 0.03 | 98 | 994.7 |
| 20260906091511 | 7 | 222 | 0.0 | 0.0 | 0.00 | 0.25 | 0.00 | 98 | 994.8 |
| 20260906090009 | 7 | 222 | 0.0 | 0.0 | 0.00 | 0.25 | 0.00 | 98 | 994.8 |
| 20260906084510 | 7 | 183 | 0.0 | 0.0 | 0.00 | 0.25 | 0.00 | 98 | 995.0 |
| 20260906083005 | 8 | 188 | 0.0 | 0.0 | 0.00 | 0.25 | 0.00 | 98 | 995.4 |
| 20260906081504 | 8 | 187 | 0.0 | 0.0 | 0.00 | 0.25 | 0.00 | 98 | 995.6 |
| 20260906080004 | 8 | 187 | 0.0 | 0.0 | 0.00 | 0.25 | 0.00 | 98 | 995.6 |
| 20260906074503 | 8 | 153 | 0.0 | 0.0 | 0.00 | 0.25 | 0.00 | 98 | 995.5 |
| 20260906073002 | 8 | 153 | 0.0 | 0.0 | 0.00 | 0.25 | 0.00 | 98 | 995.6 |
| 20260906071600 | 8 | 169 | 0.0 | 0.0 | 0.00 | 0.25 | 0.00 | 98 | 995.7 |
| 20260906070059 | 8 | 169 | 0.0 | 0.0 | 0.00 | 0.25 | 0.00 | 98 | 995.8 |
| 20260906064558 | 8 | 56 | 0.0 | 0.0 | 0.00 | 0.25 | 0.00 | 98 | 995.8 |
| 20260906063058 | 7 | 56 | 0.0 | 0.0 | 0.00 | 0.25 | 0.00 | 98 | 995.9 |
| 20260906061556 | 7 | 63 | 0.0 | 0.0 | 0.00 | 0.25 | 0.00 | 98 | 995.9 |
| 20260906060127 | 7 | 309 | 0.0 | 0.0 | 0.00 | 0.25 | 0.00 | 98 | 995.7 |
| 20260906054606 | 7 | 286 | 0.0 | 0.0 | 0.00 | 0.25 | 0.25 | 98 | 995.7 |
| 20260906053053 | 7 | 239 | 1.6 | 6.4 | 0.00 | 0.25 | 0.25 | 98 | 996.0 |
| 20260906051557 | 8 | 270 | 0.0 | 3.2 | 0.00 | 0.25 | 0.25 | 98 | 996.0 |
| 20260906050053 | 8 | 261 | 1.6 | 4.8 | 0.00 | 0.25 | 0.25 | 98 | 996.1 |
| 20260906044551 | 8 | 210 | 0.0 | 0.0 | 0.00 | 0.25 | 0.25 | 98 | 996.1 |
| 20260906043051 | 7 | 233 | 0.0 | 0.0 | 0.00 | 0.25 | 0.25 | 98 | 996.1 |
| 20260906041549 | 7 | 232 | 0.0 | 0.0 | 0.00 | 0.25 | 0.25 | 98 | 995.9 |
| 20260906040048 | 8 | 276 | 0.0 | 8.0 | 0.00 | 0.25 | 0.25 | 98 | 995.9 |
| 20260906034559 | 7 | 314 | 3.2 | 9.7 | 0.00 | 0.25 | 0.25 | 98 | 995.6 |
| 20260906033046 | 7 | 345 | 4.8 | 8.0 | 0.00 | 0.25 | 0.25 | 98 | 995.4 |
| 20260906031543 | 7 | 340 | 6.4 | 11.3 | 0.00 | 0.25 | 0.25 | 98 | 995.1 |
| 20260906030044 | 7 | 1 | 6.4 | 11.3 | 0.00 | 0.25 | 0.25 | 97 | 995.0 |
| 20260906024541 | 7 | 12 | 4.8 | 9.7 | 0.03 | 0.25 | 0.25 | 97 | 994.9 |
| 20260906023042 | 8 | 332 | 6.4 | 11.3 | 0.03 | 0.25 | 0.25 | 97 | 994.9 |
| 20260906021544 | 8 | 1 | 0.0 | 0.0 | 0.03 | 0.25 | 0.25 | 97 | 995.1 |
| 20260906020040 | 8 | 330 | 0.0 | 0.0 | 0.03 | 0.25 | 0.25 | 97 | 995.3 |
| 20260906014547 | 8 | 301 | 0.0 | 4.8 | 0.00 | 0.23 | 0.23 | 97 | 995.3 |
| 20260906013038 | 8 | 316 | 3.2 | 8.0 | 0.00 | 0.23 | 0.23 | 97 | 995.1 |
| 20260906011536 | 8 | 321 | 4.8 | 8.0 | 0.05 | 0.23 | 0.23 | 97 | 995.0 |
| 20260906010040 | 8 | 14 | 3.2 | 9.7 | 0.05 | 0.23 | 0.23 | 97 | 994.9 |
| 20260906004534 | 8 | 9 | 3.2 | 8.0 | 0.05 | 0.23 | 0.23 | 97 | 994.8 |
| 20260906003034 | 8 | 358 | 4.8 | 9.7 | 0.08 | 0.23 | 0.23 | 97 | 994.8 |
| 20260906001547 | 8 | 353 | 3.2 | 6.4 | 0.05 | 0.20 | 0.20 | 97 | 994.8 |
| 20260906000035 | 8 | 351 | 6.4 | 11.3 | 0.05 | 0.20 | 0.20 | 97 | 994.7 |